2022-095A (53367 NORAD) Tracking and Keplerian Element Data

This shows tracking and keplerian element data for the satellite.

Feedback or suggestion? Click here.




ElementValue
Catalog53367
Name2022-095A
Epoch Orbit747
Epoch Day270.19614622
Epoch Year2022
RAAN343.5848
Inclination97.4056
Eccentricity0.0076587
Argument of Perigee264.6961
Mean Anonmoly173.5191
Mean Motion15.24901855
Decay Rate8.895E-05
L11 53367U 22095A 22270.19614622 .00008895 00000+0 33161-3 0 9992
L22 53367 97.4056 343.5848 0076587 264.6961 173.5191 15.24901855 7474

Live tracking and technical data element details for 2022-095A (NORAD 53367). 2022-095A can be tracked NOW for your location showing map with azimuth and elevation plus other details from your city location.

Track the satellite on the map from your city or location and see movement details for azimuth, elevation, latitude, longitude, range, height, and movement on the map or in text.







IsCatalogInMostPopularTable: catalog: 53367, numindb: 3
Update: records affected: 1



GetName: 53367 2022-095A

Hit Count: updated at: Fri, 30 Sep 2022 03:32:33 GMT